| time (UTC) | temp F | wind direction | speed knots | gust knots | rain 1hr in | rain 24hr in | rain mn in | humidity % | barometer mb |
| 20260905121514 | 63 | 255 | 13.9 | 22.6 | 0.00 | 0.24 | 0.00 | 77 | 1006.9 |
| 20260905120516 | 64 | 264 | 12.2 | 22.6 | 0.00 | 0.25 | 0.00 | 77 | 1006.9 |
| 20260905115515 | 64 | 249 | 10.4 | 21.7 | 0.00 | 0.28 | 0.00 | 79 | 1006.8 |
| 20260905112515 | 63 | 251 | 11.3 | 21.7 | 0.00 | 0.31 | 0.00 | 79 | 1006.6 |
| 20260905110515 | 63 | 311 | 11.3 | 18.2 | 0.00 | 0.33 | 0.00 | 78 | 1006.4 |
| 20260905102515 | 63 | 314 | 13.9 | 21.7 | 0.00 | 0.35 | 0.00 | 77 | 1006.1 |
| 20260905101516 | 63 | 261 | 13.9 | 22.6 | 0.00 | 0.35 | 0.00 | 77 | 1006.1 |
| 20260905095515 | 63 | 258 | 13.0 | 21.7 | 0.00 | 0.36 | 0.00 | 77 | 1006.0 |
| 20260905093515 | 62 | 269 | 14.8 | 21.7 | 0.00 | 0.36 | 0.00 | 77 | 1005.8 |
| 20260905090515 | 64 | 310 | 15.6 | 24.3 | 0.00 | 0.38 | 0.00 | 76 | 1005.5 |
| 20260905085515 | 63 | 305 | 15.6 | 22.6 | 0.00 | 0.39 | 0.00 | 78 | 1005.4 |
| 20260905084516 | 63 | 253 | 11.3 | 18.2 | 0.00 | 0.39 | 0.00 | 79 | 1005.5 |
| 20260905080515 | 62 | 321 | 9.6 | 19.1 | 0.00 | 0.39 | 0.00 | 80 | 1005.3 |
| 20260905075517 | 62 | 324 | 11.3 | 17.4 | 0.00 | 0.39 | 0.00 | 81 | 1005.3 |
| 20260905074515 | 62 | 272 | 13.0 | 21.7 | 0.00 | 0.39 | 0.00 | 79 | 1005.1 |
| 20260905072515 | 61 | 273 | 12.2 | 21.7 | 0.00 | 0.39 | 0.00 | 82 | 1005.0 |
| 20260905063515 | 61 | 252 | 11.3 | 18.2 | 0.00 | 0.39 | 0.00 | 83 | 1004.6 |
| 20260905060515 | 60 | 236 | 9.6 | 15.6 | 0.00 | 0.39 | 0.00 | 85 | 1004.4 |
| 20260905053515 | 59 | 308 | 12.2 | 21.7 | 0.00 | 0.39 | 0.00 | 84 | 1004.2 |
| 20260905052516 | 59 | 312 | 10.4 | 17.4 | 0.00 | 0.39 | 0.00 | 84 | 1004.2 |
| 20260905050515 | 59 | 286 | 11.3 | 18.2 | 0.00 | 0.39 | 0.00 | 84 | 1003.9 |
| 20260905043516 | 59 | 273 | 9.6 | 20.0 | 0.00 | 0.39 | 0.00 | 85 | 1003.5 |
| 20260905042515 | 59 | 265 | 11.3 | 18.2 | 0.00 | 0.39 | 0.00 | 85 | 1003.5 |
| 20260905040515 | 59 | 261 | 12.2 | 22.6 | 0.00 | 0.39 | 0.00 | 85 | 1003.3 |
| 20260905033515 | 59 | 248 | 10.4 | 15.6 | 0.00 | 0.39 | 0.00 | 85 | 1003.0 |
| 20260905031515 | 59 | 268 | 11.3 | 21.7 | 0.00 | 0.39 | 0.00 | 85 | 1003.0 |
| 20260905030515 | 59 | 249 | 12.2 | 17.4 | 0.00 | 0.39 | 0.00 | 84 | 1002.9 |
| 20260905024515 | 59 | 281 | 12.2 | 24.3 | 0.00 | 0.39 | 0.00 | 84 | 1002.7 |
| 20260905021515 | 59 | 288 | 13.0 | 22.6 | 0.00 | 0.39 | 0.00 | 84 | 1002.3 |
| 20260905015515 | 59 | 268 | 14.8 | 24.3 | 0.00 | 0.39 | 0.00 | 85 | 1002.1 |
| 20260905014515 | 59 | 270 | 14.8 | 21.7 | 0.00 | 0.39 | 0.00 | 86 | 1001.8 |
| 20260905013515 | 59 | 260 | 18.2 | 21.7 | 0.00 | 0.39 | 0.00 | 86 | 1001.7 |
| 20260905012515 | 59 | 275 | 12.2 | 22.6 | 0.00 | 0.39 | 0.00 | 86 | 1001.6 |
| 20260905011515 | 59 | 281 | 13.0 | 19.1 | 0.00 | 0.39 | 0.00 | 86 | 1001.6 |
| 20260905010515 | 59 | 268 | 11.3 | 17.4 | 0.00 | 0.39 | 0.00 | 87 | 1001.5 |
| 20260905005516 | 59 | 286 | 11.3 | 20.0 | 0.00 | 0.39 | 0.00 | 87 | 1001.5 |
| 20260905002515 | 59 | 273 | 14.8 | 21.7 | 0.00 | 0.39 | 0.00 | 86 | 1001.2 |
| 20260905001515 | 59 | 276 | 14.8 | 22.6 | 0.00 | 0.39 | 0.00 | 87 | 1001.0 |
| 20260905000515 | 59 | 249 | 13.9 | 20.9 | 0.00 | 0.39 | 0.00 | 87 | 1000.9 |
| 20260904235515 | 59 | 257 | 11.3 | 19.1 | 0.00 | 0.39 | 0.00 | 88 | 1000.9 |
| 20260904232515 | 59 | 273 | 12.2 | 20.9 | 0.00 | 0.39 | 0.00 | 87 | 1000.9 |
| 20260904231515 | 59 | 280 | 11.3 | 17.4 | 0.00 | 0.39 | 0.00 | 87 | 1000.8 |
| 20260904225515 | 59 | 272 | 11.3 | 20.9 | 0.00 | 0.39 | 0.00 | 86 | 1000.8 |
| 20260904224516 | 59 | 268 | 12.2 | 20.9 | 0.00 | 0.39 | 0.00 | 86 | 1000.7 |
| 20260904222516 | 59 | 276 | 19.1 | 24.3 | 0.00 | 0.39 | 0.00 | 86 | 1000.7 |
| 20260904221510 | 59 | 261 | 12.2 | 22.6 | 0.00 | 0.39 | 0.00 | 86 | 1000.6 |
| 20260904220515 | 59 | 267 | 13.0 | 22.6 | 0.00 | 0.39 | 0.00 | 87 | 1000.5 |
| 20260904213515 | 59 | 258 | 12.2 | 20.0 | 0.00 | 0.39 | 0.39 | 87 | 1000.3 |
| 20260904212515 | 58 | 275 | 13.9 | 21.7 | 0.00 | 0.40 | 0.39 | 87 | 1000.3 |
| 20260904211516 | 58 | 252 | 15.6 | 21.7 | 0.00 | 0.40 | 0.39 | 88 | 1000.1 |
| 20260904210516 | 58 | 260 | 14.8 | 21.7 | 0.00 | 0.40 | 0.39 | 88 | 1000.1 |
| 20260904203516 | 58 | 253 | 10.4 | 20.0 | 0.00 | 0.40 | 0.39 | 91 | 999.7 |
| 20260904202515 | 58 | 283 | 17.4 | 20.9 | 0.00 | 0.40 | 0.39 | 91 | 999.7 |
| 20260904200514 | 58 | 262 | 13.9 | 20.0 | 0.00 | 0.40 | 0.39 | 94 | 999.5 |
| 20260904193515 | 57 | 318 | 7.8 | 13.9 | 0.06 | 0.40 | 0.39 | 94 | 999.2 |
| 20260904191517 | 57 | 259 | 7.8 | 13.9 | 0.06 | 0.40 | 0.39 | 94 | 999.1 |
| 20260904190514 | 57 | 269 | 7.8 | 13.0 | 0.07 | 0.40 | 0.39 | 94 | 998.8 |
| 20260904184515 | 58 | 255 | 8.7 | 13.0 | 0.05 | 0.36 | 0.35 | 94 | 998.9 |
| 20260904175515 | 59 | 237 | 7.8 | 12.2 | 0.00 | 0.31 | 0.31 | 92 | 998.5 |
| 20260904173515 | 60 | 235 | 5.2 | 10.4 | 0.00 | 0.31 | 0.31 | 92 | 998.5 |
| 20260904170515 | 60 | 234 | 4.3 | 7.8 | 0.00 | 0.31 | 0.31 | 92 | 998.5 |
| 20260904165516 | 60 | 240 | 5.2 | 8.7 | 0.00 | 0.31 | 0.31 | 92 | 998.3 |
| 20260904163516 | 61 | 295 | 6.1 | 11.3 | 0.00 | 0.31 | 0.31 | 92 | 998.4 |
| 20260904161515 | 61 | 311 | 6.1 | 8.7 | 0.00 | 0.31 | 0.31 | 92 | 998.7 |
| 20260904160515 | 61 | 322 | 6.1 | 10.4 | 0.00 | 0.31 | 0.31 | 92 | 998.4 |
| 20260904154516 | 61 | 240 | 5.2 | 11.3 | 0.00 | 0.31 | 0.31 | 93 | 998.6 |
| 20260904153516 | 61 | 249 | 6.1 | 11.3 | 0.00 | 0.31 | 0.31 | 93 | 998.6 |
| 20260904145515 | 61 | 260 | 7.8 | 13.9 | 0.00 | 0.31 | 0.31 | 94 | 998.7 |
| 20260904144516 | 61 | 326 | 6.1 | 12.2 | 0.00 | 0.31 | 0.31 | 94 | 998.7 |
| 20260904143515 | 61 | 252 | 6.1 | 11.3 | 0.00 | 0.31 | 0.31 | 95 | 998.8 |
| 20260904141516 | 61 | 238 | 5.2 | 8.7 | 0.02 | 0.32 | 0.31 | 95 | 998.7 |
| 20260904133515 | 58 | 315 | 5.2 | 8.7 | 0.13 | 0.32 | 0.31 | 95 | 999.1 |
| 20260904132516 | 58 | 321 | 6.1 | 10.4 | 0.14 | 0.31 | 0.30 | 95 | 999.1 |
| 20260904131516 | 58 | 0 | 7.8 | 13.0 | 0.13 | 0.30 | 0.28 | 95 | 999.2 |